Location: Brno
(49.2000°N, 16.6330°E)
Time: 00:57:48
(UTC+01:00)

Cosmos 1603 - Visible Passes

Search period start: 06 March 2015 00:00
Search period end: 16 March 2015 00:00
Orbit: 832 x 859 km, 71.0° (Epoch: 04 March)

Date Brightness Start Highest point End Pass type
(mag) Time Alt. Az. Time Alt. Az. Time Alt. Az.
06 Mar 6.6 00:28:45 10° NNW 00:28:45 10° NNW 00:28:45 10° NNW visible
06 Mar 6.1 18:55:20 10° W 18:59:18 19° NW 19:03:10 10° N visible
07 Mar 6.6 00:14:55 10° NNW 00:15:11 11° N 00:15:11 11° N visible
07 Mar 6.1 18:41:24 10° W 18:45:25 19° NW 18:49:20 10° N visible
08 Mar 6.5 00:01:04 10° NNW 00:01:35 12° N 00:01:35 12° N visible
08 Mar 6.1 18:27:28 10° W 18:31:31 20° NW 18:35:30 10° N visible
08 Mar 6.4 23:47:14 10° NNW 23:48:00 13° N 23:48:00 13° N visible
09 Mar 6.4 23:33:23 10° NNW 23:34:26 14° N 23:34:26 14° N visible
10 Mar 6.3 23:19:32 10° N 23:20:51 15° N 23:20:51 15° N visible
11 Mar 6.2 23:05:42 10° N 23:07:16 16° N 23:07:16 16° N visible
12 Mar 6.1 22:51:51 10° N 22:53:42 17° N 22:53:42 17° N visible
13 Mar 6.5 00:35:29 10° NNW 00:35:35 11° NNW 00:35:35 11° NNW visible
13 Mar 6.0 22:38:00 10° N 22:40:08 18° N 22:40:08 18° N visible
14 Mar 6.4 00:21:37 10° NNW 00:22:01 12° NNW 00:22:01 12° NNW visible
14 Mar 5.9 22:24:09 10° N 22:26:34 19° NNE 22:26:34 19° NNE visible
15 Mar 6.3 00:07:45 10° NNW 00:08:27 14° NNW 00:08:27 14° NNW visible
15 Mar 5.8 22:10:19 10° N 22:13:00 19° NNE 22:13:00 19° NNE visible
